Temperature
19 18 17 17 18 18 18 18 17 18 18 18 17 17 17 17 16 16 17 17 17 18 18 18 17 17 17 17 17 16 16 16 16 16 15 15 15 15 15 15 15 15 15 15
18 18 18 18 18 18 18 18 17 18 18 18 17 16 16 16 16 17 17 17 18 18 18 18 17 17 17 17 17 16 16 16 16 16 15 15 15 15 15 15 15 14 14 14
18 19 20 19 19 18 18 17 18 18 18 18 17 16 16 16 16 17 17 17 17 18 18 18 18 17 17 17 17 16 16 16 16 16 15 15 15 15 15 15 14 14 14 14
18 19 20 19 19 18 18 19 18 18 17 16 17 16 16 16 15 15 16 16 17 17 18 18 18 17 17 17 17 16 16 16 16 15 15 15 15 15 15 14 14 14 14 14
18 19 19 19 19 19 18 19 18 18 17 16 16 16 15 15 15 15 16 16 17 17 17 18 18 17 17 17 16 16 16 16 15 15 15 15 15 15 14 14 14 14 14 14
19 19 19 19 20 19 19 18 17 15 15 16 16 15 15 15 16 16 16 16 17 17 17 17 17 17 17 16 16 16 16 15 15 15 15 15 14 14 14 14 14 14 14 13
18 19 19 20 19 19 18 17 16 16 15 15 16 16 15 16 16 16 16 16 17 17 17 17 17 17 17 16 16 16 15 15 15 15 15 14 14 14 14 14 14 14 13 13
17 17 19 19 19 18 17 17 16 16 15 15 16 15 16 16 16 16 16 17 17 17 17 17 17 17 17 16 16 16 15 15 15 15 14 14 14 14 14 14 13 13 13 13
16 17 18 19 19 18 17 16 16 15 15 15 15 15 16 16 16 16 16 16 16 17 17 17 17 17 17 16 16 16 15 15 15 14 14 14 14 14 14 14 13 13 13 13
17 17 18 18 18 18 17 15 14 15 16 15 16 16 15 16 16 15 14 15 15 16 16 16 16 16 16 16 16 16 15 15 15 14 14 14 14 14 13 13 13 13 13 13
16 17 17 18 18 17 16 16 15 14 14 15 15 15 16 15 15 15 14 15 16 16 16 16 16 16 16 16 15 15 15 14 14 14 14 14 14 13 13 13 13 13 13 12
15 15 15 16 17 18 17 16 15 15 15 13 14 14 16 15 15 15 15 15 16 16 16 16 16 16 15 15 15 15 14 14 14 14 14 13 13 13 13 13 13 13 12 12
15 15 15 16 16 17 17 16 15 14 13 12 14 15 15 14 15 15 15 15 16 16 16 16 16 15 15 15 15 14 14 14 14 13 13 13 13 13 13 13 12 12 12 12
15 14 15 16 16 16 16 16 15 14 14 13 13 15 15 15 14 14 15 15 15 15 15 15 15 15 15 14 14 14 14 14 14 13 13 13 13 12 12 12 12 12 12 12
14 14 15 15 16 16 16 16 15 15 14 14 14 14 15 14 14 14 15 15 15 15 15 15 15 14 14 14 14 13 13 13 13 13 13 13 12 12 12 12 12 12 12 12
13 14 15 15 16 15 15 15 15 15 15 14 14 14 14 14 14 14 14 14 14 14 14 14 14 14 14 14 13 13 13 13 13 13 13 12 12 12 12 11 11 11 11 11
12 13 14 14 14 15 14 15 15 15 15 15 14 15 14 13 13 13 14 14 14 14 14 14 14 14 14 14 13 13 13 13 12 12 12 12 12 12 11 11 11 11 11 11
12 12 12 12 14 15 15 15 15 15 15 14 14 14 13 14 14 14 14 14 14 14 14 14 14 14 14 13 13 13 12 12 12 12 12 12 11 11 11 11 11 11 11 11
11 12 11 12 13 13 14 14 14 14 14 13 13 13 13 13 13 13 14 14 14 14 14 14 13 13 13 13 13 12 12 12 12 12 11 11 11 11 11 11 11 11 11 10
11 11 11 11 13 13 14 15 15 15 14 13 13 12 12 12 11 12 14 14 14 14 14 13 13 13 13 13 12 12 12 12 11 11 11 11 11 11 11 11 11 10 10 10
12 11 11 11 12 12 13 14 14 14 14 14 13 13 12 12 12 13 13 14 14 13 13 13 13 13 12 12 12 12 11 11 11 11 11 11 11 10 10 10 10 10 10 10
11 11 10 10 12 12 13 13 13 13 14 14 14 13 13 13 13 13 13 13 13 13 13 13 12 12 12 12 11 11 11 11 11 11 11 10 10 10 10 10 10 9 9 9
10 10 10 10 12 12 12 13 14 14 14 14 14 13 13 13 13 13 12 12 12 12 12 12 12 12 12 11 11 11 11 11 11 10 10 10 10 10 9 9 9 9 9 9
9 9 9 9 10 11 12 13 13 13 14 14 13 13 13 13 13 12 12 12 12 12 12 12 12 12 11 11 11 11 11 10 10 10 10 10 9 9 9 9 9 9 9 9
10 9 9 9 10 11 12 13 13 13 13 13 13 13 13 13 12 12 12 11 11 11 11 11 11 11 11 11 10 10 10 10 10 10 9 9 9 9 9 8 8 8 8 8
8 9 9 10 11 10 11 13 13 12 12 12 12 12 12 12 12 12 11 11 11 11 11 11 11 10 10 10 10 10 10 9 9 9 9 9 8 8 8 8 8 7 7 7
Wind_Speed
2 3 4 7 7 5 3 3 4 6 3 2 5 7 7 4 5 6 6 6 7 8 5 3 4 5 4 4 4 4 4 3 3 2 2 2 1 1 1 2 2 3 3 3
4 3 7 5 4 4 3 3 4 5 2 3 4 6 6 5 6 8 8 8 8 6 3 3 4 4 5 5 5 4 4 4 3 2 2 2 2 1 1 1 2 2 2 2
6 5 2 3 3 3 4 5 5 4 2 2 1 5 4 4 3 4 5 6 7 8 8 6 5 5 5 5 6 6 5 4 4 3 3 2 2 2 2 1 1 1 1 2
4 4 2 2 3 5 4 6 5 3 0 3 0 4 6 4 4 5 6 5 6 7 7 6 6 6 6 6 6 6 5 5 4 4 4 4 3 2 2 1 1 0 1 1
4 2 3 4 5 6 6 1 2 1 2 1 1 2 7 2 5 7 7 7 7 7 7 7 7 7 6 5 5 5 5 4 4 4 5 4 3 2 1 1 1 0 0 0
4 2 3 5 2 3 3 5 5 4 3 2 3 4 6 4 5 5 5 6 6 6 6 6 5 5 4 4 4 4 4 4 4 4 4 5 4 3 2 1 1 1 1 1
4 3 2 2 2 2 4 5 3 4 3 5 2 3 7 6 5 6 6 6 5 5 5 6 5 6 6 5 5 5 5 4 4 5 4 5 5 5 4 3 3 2 1 2
2 5 3 2 4 4 3 7 6 4 4 5 2 5 6 5 4 3 2 2 3 3 4 6 6 6 6 6 6 6 6 5 5 5 5 4 4 3 3 4 3 3 3 3
4 5 4 2 2 7 5 3 5 5 2 2 5 6 7 3 4 3 3 3 2 2 3 5 5 5 6 7 7 7 7 5 4 5 4 4 4 3 4 3 3 3 3 3
6 4 4 2 3 3 4 7 5 4 3 3 5 4 4 5 4 3 2 0 1 2 2 2 3 4 4 5 6 6 6 6 5 4 4 4 4 4 4 3 3 3 3 3
4 4 4 1 3 4 3 3 4 4 4 4 3 5 3 5 3 2 2 2 2 3 3 3 2 3 3 3 4 5 5 4 4 4 4 4 4 4 3 3 4 4 3 3
3 4 3 6 5 4 4 6 7 4 3 4 3 6 4 3 2 2 2 2 1 2 2 2 2 2 2 2 2 3 4 4 4 3 3 3 3 3 3 4 4 4 3 3
4 4 0 5 4 1 1 3 4 5 4 4 4 6 3 3 3 2 1 1 1 1 1 1 1 2 2 2 2 2 3 4 3 3 3 3 3 3 4 4 4 4 4 3
4 4 6 7 6 4 3 3 4 5 4 5 7 7 6 5 4 3 1 0 1 2 2 1 1 1 2 2 2 2 2 3 3 3 3 3 4 4 5 4 4 4 4 4
4 3 4 5 5 3 4 4 4 6 7 7 7 7 8 6 5 3 1 1 1 1 1 1 2 2 2 2 2 2 3 3 3 3 3 4 4 3 3 3 3 3 3 4
2 2 1 3 3 3 4 5 5 6 5 6 5 7 5 3 1 0 1 2 2 2 3 2 2 2 2 3 3 3 3 3 3 3 4 4 3 3 3 4 3 3 3 3
0 2 2 3 4 3 5 6 6 4 4 6 7 7 3 1 3 4 4 3 4 4 3 3 3 3 3 3 3 3 4 3 2 3 4 3 3 3 4 3 3 3 4 3
4 3 2 1 1 4 6 2 3 3 3 3 4 3 2 4 3 1 2 4 4 4 3 2 2 2 2 2 1 2 1 2 2 3 3 3 3 3 3 3 4 4 3 3
5 5 3 2 2 5 6 2 2 2 4 2 2 2 1 1 3 3 2 3 4 3 3 3 3 2 2 1 1 1 1 0 1 2 3 3 3 3 3 4 5 4 3 3
3 3 4 3 3 5 5 3 2 2 3 2 2 2 0 2 1 4 3 2 1 1 0 1 1 1 1 1 1 2 1 1 2 4 4 3 3 4 4 5 4 3 3 4
1 2 3 4 4 6 5 3 2 3 5 2 1 2 3 3 4 3 3 2 1 0 1 1 2 1 1 1 2 2 1 3 4 3 1 1 2 3 3 3 3 2 3 2
4 3 4 4 4 6 2 2 4 5 2 0 1 1 2 2 1 2 2 2 1 1 1 1 2 0 0 1 2 2 2 4 2 0 0 1 1 1 1 1 2 2 2 2
4 5 5 6 5 3 3 3 2 1 1 2 1 1 2 0 1 1 2 1 1 1 0 0 1 1 0 1 2 2 3 2 1 1 0 1 1 1 1 1 2 1 1 2
3 1 2 2 5 4 4 3 2 1 2 1 1 2 2 1 1 0 1 1 1 1 1 0 1 1 1 1 2 3 2 1 1 1 1 1 1 1 1 1 1 1 2 2
4 3 2 4 5 4 4 3 2 1 1 1 1 1 2 2 1 1 1 1 1 1 1 1 1 1 1 1 1 2 1 1 2 1 1 1 1 0 0 1 1 1 2 3
4 6 5 6 6 5 5 4 2 1 1 1 0 1 1 1 2 1 0 1 0 1 1 1 1 0 1 1 2 2 1 1 2 1 1 1 1 0 0 1 2 3 2 2
Wind_Direction
69 93 197 211 198 190 180 206 256 263 239 194 236 253 260 232 209 221 223 218 216 225 227 201 190 173 160 156 153 152 146 144 134 127 127 116 103 72 60 58 83 91 98 101
53 246 230 200 178 169 178 229 262 284 250 198 249 271 266 229 219 219 215 217 219 222 214 200 185 173 173 174 171 166 166 160 160 161 156 145 138 121 109 47 60 80 106 114
189 234 202 153 162 170 206 206 231 246 326 13 333 309 283 267 240 234 224 218 215 209 205 199 186 187 181 182 184 182 179 173 168 150 119 91 73 54 43 43 51 37 118 131
227 249 182 181 215 180 242 227 212 214 163 286 69 294 286 272 278 251 237 221 218 216 203 195 189 187 191 195 187 179 175 169 162 149 142 142 149 168 204 195 200 44 104 149
241 215 187 215 227 191 220 220 149 147 159 312 302 223 289 310 279 261 241 227 221 213 200 194 194 191 192 185 177 176 168 169 167 161 161 154 155 170 162 120 118 122 353 210
242 236 203 216 225 177 140 68 58 50 74 296 244 189 283 256 249 263 248 233 221 210 199 192 187 177 177 170 167 165 167 176 174 169 166 167 170 165 149 153 181 213 266 266
310 298 269 178 109 49 95 93 26 353 2 261 250 201 256 265 258 245 249 238 217 199 191 185 181 181 180 177 179 178 174 183 184 179 182 187 185 180 187 196 203 210 231 251
223 280 260 203 179 180 165 147 165 210 233 279 297 239 261 288 294 279 249 196 170 180 185 190 194 191 188 186 184 183 185 189 187 189 199 195 188 190 204 205 207 216 225 237
193 254 290 255 197 151 148 179 172 147 182 267 278 283 305 331 357 27 55 85 154 188 191 199 199 192 190 188 187 185 184 188 191 197 197 195 195 200 216 222 217 228 240 243
167 238 285 284 84 46 143 145 110 137 175 259 286 281 275 304 312 0 25 338 234 211 197 204 199 195 196 193 186 179 181 187 191 190 194 200 206 212 218 221 230 239 245 244
152 186 296 355 181 184 110 116 120 129 156 171 269 278 250 249 259 248 262 264 230 218 208 202 191 185 178 171 170 176 185 189 190 193 195 200 210 213 212 221 236 238 238 229
158 146 248 263 259 201 179 172 149 159 221 186 198 266 289 270 258 224 258 278 264 225 208 194 171 140 132 152 172 182 192 198 204 198 196 206 212 206 213 228 232 223 229 226
146 129 326 327 333 351 180 176 163 141 139 172 192 257 318 359 357 337 302 296 210 148 129 103 119 143 163 175 181 190 200 203 201 186 188 207 215 213 222 231 232 224 226 230
131 141 178 208 233 229 240 221 176 151 176 208 221 247 287 304 306 304 291 220 160 145 136 125 155 186 192 198 200 203 215 206 194 184 190 210 225 225 224 229 232 229 224 225
109 182 217 240 252 227 235 236 200 198 202 204 230 234 256 253 252 258 240 151 138 143 158 187 210 220 207 204 212 218 226 224 200 186 202 224 234 232 225 227 235 236 231 233
72 173 219 278 277 253 270 259 222 222 214 214 236 254 253 251 211 228 219 191 213 227 225 226 228 231 223 218 220 223 229 228 199 198 218 228 225 224 227 231 232 236 243 242
96 137 153 257 302 334 277 246 206 200 195 182 217 245 249 246 212 212 216 209 225 237 229 222 229 231 233 228 216 215 229 226 208 219 228 225 221 228 235 232 224 231 240 240
163 140 154 204 48 243 252 281 190 205 239 217 229 257 227 223 222 231 211 212 230 237 232 233 236 238 235 220 214 216 211 202 212 226 235 234 226 233 239 228 228 235 234 234
174 154 145 148 212 273 295 279 169 186 272 270 231 275 329 15 33 345 280 217 226 231 228 219 216 215 214 223 222 158 155 170 222 241 244 240 228 227 226 229 236 236 231 239
98 128 139 149 187 237 252 280 270 130 274 284 199 219 196 80 64 280 297 295 266 266 180 172 165 125 133 246 175 145 188 208 243 249 248 240 229 226 230 233 236 237 225 235
89 105 163 181 213 256 260 287 87 154 253 293 187 191 170 188 218 265 311 332 326 15 139 128 121 129 207 187 138 154 195 242 251 254 256 250 241 236 237 242 244 232 221 229
184 178 192 167 198 247 281 116 167 218 263 272 202 184 175 217 306 343 353 350 355 10 58 120 123 118 357 132 144 172 231 252 261 214 180 284 279 273 290 247 256 233 202 206
196 194 192 196 217 266 284 232 246 194 210 239 209 210 160 173 320 345 345 338 328 335 66 121 138 120 15 176 169 204 253 265 231 169 253 288 312 300 274 220 231 241 204 203
268 162 160 245 271 285 296 298 308 257 205 221 186 168 153 180 223 316 330 327 332 336 343 34 98 108 275 263 235 237 257 240 199 212 259 273 283 314 318 272 229 226 223 224
231 171 183 250 271 306 296 280 287 348 44 80 87 148 179 159 191 217 270 285 289 319 343 71 142 190 263 288 283 285 253 209 217 229 251 276 265 203 344 319 271 247 239 235
215 191 191 232 228 210 256 271 284 283 280 244 153 343 317 180 208 204 250 278 322 343 9 31 27 142 291 302 290 296 263 195 191 212 245 240 223 189 195 320 335 335 333 328
Height
1509 1514 1519 1517 1516 1517 1520 1524 1526 1521 1516 1519 1520 1519 1514 1513 1514 1514 1514 1515 1516 1517 1519 1521 1523 1524 1526 1527 1528 1530 1531 1531 1532 1533 1533 1534 1534 1535 1535 1535 1535 1535 1535 1535
1514 1516 1511 1510 1512 1515 1519 1524 1524 1519 1514 1517 1519 1517 1512 1511 1511 1510 1511 1511 1513 1515 1517 1519 1520 1522 1524 1525 1527 1528 1529 1530 1531 1532 1533 1533 1534 1534 1535 1535 1535 1535 1535 1535
1514 1511 1507 1510 1513 1517 1519 1522 1521 1520 1516 1516 1519 1519 1513 1509 1508 1508 1508 1509 1510 1512 1513 1516 1518 1520 1521 1523 1524 1526 1528 1529 1530 1531 1532 1533 1533 1534 1534 1534 1534 1534 1534 1534
1510 1506 1507 1510 1512 1514 1520 1512 1513 1516 1522 1527 1523 1532 1516 1510 1508 1506 1505 1506 1506 1509 1511 1513 1515 1517 1519 1521 1523 1524 1526 1527 1528 1529 1530 1531 1531 1532 1532 1533 1533 1533 1533 1534
1509 1506 1507 1510 1508 1509 1511 1508 1511 1515 1521 1527 1525 1531 1521 1512 1509 1504 1502 1502 1503 1505 1508 1510 1512 1515 1517 1519 1520 1522 1524 1525 1527 1528 1529 1530 1530 1531 1532 1532 1532 1532 1532 1532
1505 1503 1503 1504 1503 1504 1507 1512 1516 1522 1527 1535 1527 1531 1525 1514 1506 1501 1499 1499 1500 1502 1505 1507 1510 1513 1515 1517 1519 1520 1522 1523 1525 1526 1527 1528 1529 1530 1530 1530 1531 1531 1531 1531
1509 1504 1502 1501 1505 1506 1509 1521 1535 1537 1542 1538 1524 1527 1521 1504 1500 1498 1497 1497 1498 1500 1502 1505 1507 1510 1512 1514 1516 1518 1520 1521 1522 1524 1525 1526 1527 1528 1529 1529 1529 1529 1529 1529
1518 1517 1504 1501 1503 1508 1511 1518 1535 1542 1544 1536 1525 1526 1512 1500 1497 1496 1495 1496 1497 1499 1500 1502 1505 1507 1509 1511 1513 1515 1517 1518 1520 1521 1523 1524 1525 1526 1527 1527 1527 1527 1527 1527
1517 1516 1501 1499 1499 1503 1511 1516 1516 1529 1532 1536 1529 1520 1507 1498 1496 1495 1495 1495 1497 1498 1499 1501 1503 1504 1506 1508 1510 1512 1514 1516 1517 1519 1520 1522 1523 1524 1524 1525 1525 1525 1525 1525
1507 1514 1504 1500 1499 1502 1504 1511 1522 1528 1536 1540 1530 1523 1517 1503 1499 1497 1496 1496 1497 1498 1498 1500 1501 1503 1504 1506 1508 1510 1511 1513 1515 1516 1517 1519 1520 1521 1522 1523 1523 1523 1523 1523
1504 1512 1509 1503 1504 1506 1509 1513 1517 1526 1529 1537 1538 1527 1505 1502 1499 1498 1497 1496 1496 1497 1498 1499 1500 1501 1503 1504 1506 1507 1509 1511 1512 1514 1515 1516 1517 1518 1519 1520 1520 1520 1521 1521
1504 1511 1515 1507 1500 1498 1501 1506 1514 1524 1528 1530 1533 1526 1500 1499 1497 1497 1497 1496 1496 1496 1497 1498 1499 1500 1501 1502 1503 1505 1506 1508 1510 1511 1512 1513 1514 1516 1516 1517 1517 1518 1518 1518
1503 1511 1520 1515 1510 1503 1502 1503 1507 1513 1523 1530 1531 1520 1499 1497 1496 1496 1496 1496 1496 1496 1497 1497 1498 1499 1500 1501 1502 1503 1504 1505 1507 1509 1509 1510 1511 1512 1513 1514 1514 1514 1515 1515
1499 1508 1515 1518 1512 1505 1504 1503 1505 1511 1520 1524 1520 1512 1502 1498 1497 1496 1495 1495 1495 1496 1496 1497 1497 1498 1499 1499 1500 1501 1502 1503 1505 1506 1506 1507 1508 1508 1509 1510 1511 1511 1511 1511
1499 1507 1506 1504 1501 1501 1501 1501 1502 1506 1507 1512 1509 1507 1500 1496 1495 1494 1494 1494 1494 1494 1495 1495 1496 1496 1497 1497 1498 1499 1500 1501 1502 1503 1503 1504 1505 1505 1506 1506 1507 1507 1507 1508
1501 1505 1504 1504 1500 1500 1501 1498 1499 1500 1501 1503 1503 1501 1494 1493 1493 1493 1493 1493 1494 1493 1494 1494 1494 1494 1494 1495 1496 1497 1497 1498 1499 1499 1500 1501 1501 1502 1502 1502 1503 1503 1503 1504
1504 1505 1508 1510 1503 1501 1505 1497 1496 1496 1495 1497 1500 1496 1492 1492 1491 1491 1491 1492 1492 1492 1492 1492 1492 1492 1492 1493 1493 1494 1495 1495 1496 1497 1497 1498 1498 1498 1499 1499 1499 1499 1499 1500
1503 1506 1510 1511 1508 1512 1500 1490 1490 1491 1491 1491 1490 1490 1489 1489 1489 1489 1490 1490 1490 1490 1490 1490 1490 1490 1490 1491 1491 1492 1492 1493 1493 1494 1494 1495 1495 1495 1496 1496 1496 1496 1496 1496
1498 1503 1510 1514 1513 1507 1497 1490 1490 1492 1492 1490 1490 1489 1488 1488 1488 1488 1488 1488 1488 1488 1488 1488 1488 1488 1488 1488 1489 1490 1490 1490 1491 1491 1491 1492 1492 1492 1492 1492 1492 1492 1492 1492
1498 1500 1508 1513 1511 1511 1497 1488 1486 1489 1493 1487 1487 1488 1488 1488 1491 1489 1486 1486 1486 1486 1486 1486 1486 1486 1486 1486 1487 1487 1487 1487 1488 1488 1488 1489 1489 1489 1489 1489 1489 1489 1488 1488
1502 1504 1508 1510 1509 1502 1491 1487 1486 1497 1495 1486 1485 1486 1486 1487 1487 1487 1485 1484 1484 1484 1484 1484 1484 1484 1484 1484 1484 1484 1485 1485 1485 1485 1486 1486 1486 1486 1486 1485 1485 1485 1484 1484
1501 1504 1507 1509 1509 1503 1487 1487 1489 1489 1485 1484 1484 1484 1484 1485 1485 1484 1483 1483 1482 1482 1482 1482 1481 1481 1482 1482 1482 1482 1482 1483 1483 1483 1483 1483 1482 1482 1482 1481 1481 1481 1480 1480
1497 1497 1498 1499 1497 1489 1486 1485 1485 1484 1484 1483 1483 1483 1484 1483 1483 1483 1482 1482 1481 1481 1480 1480 1479 1479 1479 1480 1480 1480 1480 1481 1480 1480 1480 1480 1479 1479 1478 1478 1478 1477 1477 1476
1493 1492 1494 1494 1488 1486 1485 1483 1483 1483 1482 1482 1482 1482 1482 1482 1482 1482 1481 1480 1480 1479 1478 1478 1477 1477 1477 1478 1478 1478 1478 1478 1478 1477 1477 1477 1476 1475 1475 1475 1474 1473 1473 1472
1490 1490 1492 1491 1486 1484 1483 1482 1481 1481 1481 1481 1481 1481 1481 1481 1481 1480 1480 1479 1478 1478 1477 1476 1475 1475 1475 1476 1476 1476 1476 1476 1475 1475 1474 1474 1473 1472 1472 1471 1471 1470 1469 1469
1485 1486 1488 1486 1482 1482 1481 1480 1480 1479 1479 1479 1479 1479 1480 1480 1479 1479 1478 1478 1477 1476 1475 1474 1474 1473 1473 1473 1473 1473 1473 1473 1472 1471 1471 1471 1470 1469 1469 1468 1467 1467 1466 1466